Weather in Osyno

Russia / Pskov Oblast     56°09′12″N   28°40′20″E
temp.,
°C
wind,
m/s
gust,
m/s
humid.,
%
clouds,
%
prec.,
mm/h
press.,
hPa
HPBL,
m
19 april, mon
mon1900:00+6ne28712 0.0 1023161
03:00+5ene310774 0.0 1024227
06:00+4ene38835 0.0 1024177
09:00+9ene36625 0.0 1024460
12:00+13ene46475 0.0 10231655
15:00+14e454097 0.0 10232304
18:00+12ne465793 0.1 10221260
21:00+9ene377396 0.1 1023331
20 april, tue
tue2000:00+6e278791 0.1 1023271
03:00+5ene268491 0.1 1022236
06:00+5ne268399 0.0 1020325
09:00+6ene3679100 0.1 1020777
12:00+5e4692100 0.5 1019756
15:00+4ene3794100 0.8 1018494
18:00+4ene3695100 0.4 1016523
21:00+3ne2597100 1.0 1015648
21 april, wed
wed2100:00+3n1498100 1.1 1012717
03:00+3nne1298100 2.6 1010505
06:00+3nnw1498100 0.9 1008567
09:00+4n2494100 1.3 1007456
12:00+4nw2485100 0.2 1006631
15:00+6wnw3575100 0.3 1006980
18:00+6wsw3680100 0.1 1006534
21:00+5ssw388896 0.2 1007295
22 april, thu
thu2200:00+3ssw3108895 0.0 1007253
03:00+4ssw41287100 0.1 1007391
06:00+3s399391 0.1 1007243
09:00+7s477738 0.1 1007442
12:00+5sw4792100 2.5 1008761
15:00+8sw496389 2.7 10101605
18:00+10sw4850100 0.0 10091855
21:00+5ssw376679 0.1 1011160
23 april, fri
fri2300:00+4ssw3877100 0.0 1011233
03:00+3s3778100 0.0 1010232
06:00+3ssw31078100 0.0 1010428
09:00+5ssw595769 0.0 1010956
12:00+6sw696697 0.2 10101356
15:00+7wsw686181 0.7 10111469
18:00+7w476179 0.2 10121463
21:00+3w267799 0.3 1013160